Gainesville, GA

12:21 PM EST on December 12, 2019 (GMT -0500)
Gilmer Memorial

Weather History for KGVL - August, 2019

Change the Weather History Date:

Monday, August 19, 2019

  Actual Average Record
Temperature  
Mean Temperature 81 °F 78 °F  
Max Temperature 91 °F 87 °F 98 °F (1988)
Min Temperature 70 °F 69 °F 60 °F (1976)
Cooling Degree Days 16 13  
Month to date cooling degree days 300 259  
Year to date cooling degree days 1373 1181  
Since 1 June cooling degree days 1037 1006  
Growing Degree Days 32 (Base 50)    
Moisture  
Dew Point 71 °F    
Average Humidity 75    
Maximum Humidity 100    
Minimum Humidity 49    
Precipitation  
Precipitation T in 0.14 in 1.31 in (1942)
Month to date precipitation 2.13 2.96  
Year to date precipitation 36.97 34.78  
Sea Level Pressure  
Sea Level Pressure 30.06 in    
Wind  
Wind Speed 4 mph (East)    
Max Wind Speed 17 mph    
Max Gust Speed 25 mph    
Visibility 10 miles    
Events Rain , Thunderstorm    
T = Trace of Precipitation, MM = Missing Value Source: NWS Daily Summary

Daily Weather History Graph

Daily Weather History Graph

Search for Another Location

Airport or City:

Astronomy

Aug. 19, 2019 Rise Set
Actual Time 6:59 AM EDT 8:18 PM EDT
Civil Twilight 6:32 AM EDT 8:44 PM EDT
Nautical Twilight 6:01 AM EDT 9:15 PM EDT
Astronomical Twilight 5:28 AM EDT 9:48 PM EDT
Moon 10:48 PM EDT (8/19) 10:31 AM EDT (8/19)
Length of Visible Light 14h 11m
Length of Day
13h 18m
Waning Gibbous, 85% of the Moon is Illuminated
Aug 19
Waning Gibbous
Aug 23
Last Quarter
Aug 30
New
Sep 5
First Quarter
Sep 14
Full

Hourly Weather History & Observations

Time (EDT) Temp. Heat Index Dew Point Humidity Pressure Visibility Wind Dir Wind Speed Gust Speed Precip Events Conditions
12:53 AM 77.0 °F - 71.1 °F 82% 30.03 in 10.0 mi Calm Calm - N/A   Clear
1:53 AM 73.9 °F - 71.1 °F 91% 30.03 in 10.0 mi Calm Calm - N/A   Clear
2:53 AM 75.0 °F - 70.0 °F 84% 30.03 in 10.0 mi SSE 4.6 mph - N/A   Clear
3:53 AM 73.9 °F - 71.1 °F 91% 30.03 in 10.0 mi SE 3.5 mph - N/A   Clear
4:53 AM 73.0 °F - 71.1 °F 93% 30.03 in 10.0 mi Calm Calm - N/A   Clear
5:53 AM 73.0 °F - 71.1 °F 93% 30.04 in 10.0 mi Calm Calm - N/A   Clear
6:53 AM 72.0 °F - 71.1 °F 97% 30.05 in 10.0 mi Calm Calm - N/A   Clear
7:53 AM 75.0 °F - 72.0 °F 90% 30.07 in 10.0 mi NNW 4.6 mph - N/A   Partly Cloudy
8:53 AM 78.1 °F - 72.0 °F 81% 30.08 in 10.0 mi Calm Calm - N/A   Clear
9:53 AM 82.0 °F 87.4 °F 73.0 °F 74% 30.08 in 10.0 mi Calm Calm - N/A   Clear
10:53 AM 81.0 °F 86.2 °F 73.9 °F 79% 30.09 in 10.0 mi SSE 3.5 mph - N/A   Clear
11:53 AM 84.0 °F 91.2 °F 73.9 °F 72% 30.09 in 10.0 mi NE 3.5 mph - N/A   Clear
12:53 PM 86.0 °F 93.8 °F 73.9 °F 67% 30.08 in 10.0 mi Variable 4.6 mph - N/A   Clear
1:53 PM 88.0 °F 96.5 °F 73.9 °F 63% 30.07 in 10.0 mi Variable 5.8 mph - N/A   Clear
2:53 PM 90.0 °F 95.4 °F 70.0 °F 52% 30.03 in 10.0 mi SE 8.1 mph - N/A   Clear
3:53 PM 91.0 °F 96.6 °F 70.0 °F 50% 30.02 in 10.0 mi ESE 8.1 mph - N/A Thunderstorm Partly Cloudy
4:20 PM 89.1 °F 94.1 °F 70.0 °F 53% 30.07 in 3.0 mi Variable 4.6 mph - N/A Thunderstorm Unknown
4:53 PM 78.1 °F - 70.0 °F 76% 30.04 in 10.0 mi WNW 13.8 mph - 0.00 in Rain , Thunderstorm Light Thunderstorms and Rain
5:05 PM 75.9 °F - 70.0 °F 82% 30.08 in 10.0 mi NW 8.1 mph - 0.00 in Rain Light Rain
5:53 PM 78.1 °F - 70.0 °F 76% 30.03 in 10.0 mi NW 5.8 mph - 0.00 in   Clear
6:53 PM 77.0 °F - 70.0 °F 79% 30.04 in 10.0 mi NNE 6.9 mph - N/A   Mostly Cloudy
7:53 PM 75.0 °F - 69.1 °F 82% 30.06 in 10.0 mi East 9.2 mph - N/A   Clear
8:53 PM 75.0 °F - 69.1 °F 82% 30.06 in 10.0 mi Calm Calm - N/A   Clear
9:53 PM 73.0 °F - 69.1 °F 87% 30.11 in 10.0 mi ENE 5.8 mph - N/A   Clear
10:53 PM 72.0 °F - 69.1 °F 91% 30.12 in 10.0 mi Calm Calm - N/A   Clear
11:53 PM 72.0 °F - 68.0 °F 87% 30.12 in 10.0 mi Calm Calm - N/A   Clear